Hourly Data Report for July 24, 2021

WINNIPEG A CS
MANITOBA
Current Station Operator: ECCC - MSC

49°55'00.000" N
97°14'58.000" W
238.70 m
502S001
71849
XWG

Download Data

Hourly Data (July 2021)
Hourly Data Report for July 24, 2021
TIME
LST
Temp Definition
°C
Dew Point Definition
°C
Rel Hum Definition
%
Precip. Amount Definition
mm

Wind Dir Definition
10's deg

Wind Spd Definition
km/h
Visibility Definition
km
Stn Press Definition
kPa
Hmdx Definition


Wind Chill Definition


Weather Definition


00:00 14.7 10.0 74 0.0 27 10   98.04     LegendNANA
01:00 14.2 9.4 72 0.0 26 10   98.02     LegendNANA
02:00 15.4 8.8 65 0.0 26 14   98.02     LegendNANA
03:00 15.1 9.1 67 0.0 23 12   98.02     LegendNANA
04:00 15.0 8.7 66 0.0 25 15   98.03     LegendNANA
05:00 13.3 8.5 73 0.0 27 16   98.08     LegendNANA
06:00 14.6 8.7 68 0.0 27 17   98.10     LegendNANA
07:00 17.8 9.5 58 0.0 27 17   98.18     LegendNANA
08:00 21.3 11.3 53 0.0 28 21   98.20     LegendNANA
09:00 23.0 11.1 47 0.0 29 23   98.25 25   LegendNANA
10:00 25.6 10.2 38 0.0 27 22   98.26 27   LegendNANA
11:00 26.5 9.3 34 0.0 29 33   98.28 27   LegendNANA
12:00 28.1 8.9 30 0.0 29 32   98.26 29   LegendNANA
13:00 28.4 8.7 29 0.0 30 30   98.22 29   LegendNANA
14:00 27.6 8.0 29 0.0 30 29   98.22 28   LegendNANA
15:00 28.8 7.8 27 0.0 30 32   98.20 29   LegendNANA
16:00 28.6 7.7 27 0.0 29 29   98.17 29   LegendNANA
17:00 28.9 8.5 28 0.0 29 30   98.15 30   LegendNANA
18:00 28.5 8.6 29 0.0 29 25   98.13 29   LegendNANA
19:00 27.3 8.0 30 0.0 30 21   98.12 28   LegendNANA
20:00 23.3 9.9 43 0.0 32 13   98.13 25   LegendNANA
21:00 20.8 9.7 49 0.0 30 15   98.17     LegendNANA
22:00 17.0 9.4 61 0.0 27 13   98.19     LegendNANA
23:00 17.4 8.7 56 0.0 26 12   98.20     LegendNANA

Notes on Data Quality.

Legend

  • E = Estimated
  • M = Missing
  • NA = Not Available*
  • [empty] = Indicates an unobserved value
Date modified: